This is the latest recevied weather packets stored in our database for station/object SR4DIG-13. If no packets are shown the sender has not sent any weather packets the latest 10 day(s).
| Time | Temp. | Humidity | Pressure | Rain* | Wind** | Luminosity | Snow |
|---|---|---|---|---|---|---|---|
| 1777639079 | 17.78° C | 47% | 1024.1 hPa | 0 mm | - | - | - |
| 1777638778 | 17.78° C | 47% | 1024.1 hPa | 0 mm | - | - | - |
| 1777638478 | 17.78° C | 47% | 1024.1 hPa | 0 mm | - | - | - |
| 1777638177 | 17.22° C | 48% | 1024.2 hPa | 0 mm | - | - | - |
| 1777637824 | 17.22° C | 49% | 1024.3 hPa | 0 mm | - | - | - |
| 1777637523 | 17.22° C | 49% | 1024.3 hPa | 0 mm | - | - | - |
| 1777637222 | 16.67° C | 49% | 1024.2 hPa | 0 mm | - | - | - |
| 1777636921 | 16.67° C | 48% | 1024.3 hPa | 0 mm | - | - | - |
| 1777636274 | 16.67° C | 48% | 1024.4 hPa | 0 mm | - | - | - |
| 1777635973 | 16.67° C | 48% | 1024.3 hPa | 0 mm | - | - | - |
| 1777635672 | 16.67° C | 49% | 1024.5 hPa | 0 mm | - | - | - |
| 1777635372 | 16.11° C | 50% | 1024.5 hPa | 0 mm | - | - | - |
| 1777635071 | 16.11° C | 50% | 1024.5 hPa | 0 mm | - | - | - |
| 1777634770 | 15.56° C | 51% | 1024.4 hPa | 0 mm | - | - | - |
| 1777634469 | 15.56° C | 51% | 1024.4 hPa | 0 mm | - | - | - |
| 1777634168 | 15.56° C | 51% | 1024.5 hPa | 0 mm | - | - | - |
| 1777633867 | 15.56° C | 52% | 1024.5 hPa | 0 mm | - | - | - |
| 1777633266 | 14.44° C | 52% | 1024.5 hPa | 0 mm | - | - | - |
| 1777632674 | 14.44° C | 52% | 1024.6 hPa | 0 mm | - | - | - |
| 1777632374 | 14.44° C | 52% | 1024.5 hPa | 0 mm | - | - | - |
| 1777632073 | 14.44° C | 52% | 1024.6 hPa | 0 mm | - | - | - |
| 1777631772 | 15° C | 52% | 1024.6 hPa | 0 mm | - | - | - |
| 1777631471 | 15° C | 52% | 1024.6 hPa | 0 mm | - | - | - |
| 1777631170 | 15° C | 51% | 1024.7 hPa | 0 mm | - | - | - |
| 1777630869 | 15.56° C | 51% | 1024.4 hPa | 0 mm | - | - | - |
* Rain since midnight (hover to see other rain measurements)
** Current wind speed in m/s (hover to see current wind gust speed)